[[{"header":{"parameterUnit":"m.s-1","parameterCategory":1,"la1":30.2991,"la2":30.254,"lo1":-89.0895,"lo2":-89.0444,"dy":0.0017,"dx":0.0017,"nx":28,"ny":28,"refTime":"2025-11-14T09:00:00:Z","depth":0,"parameterNumber":2,"parameterNumberName":"U-component_of_WINDS"},"data":[0,0,0,0,0,0,0,0,0,0,0,0,0,0,0,0,0,0,0,0,0,0,0,0,0,0,0,0,0,0,0,0,0,0,0,0,0,0,0,0,0,0,0,0,0,0,0,0,0,0,0,0,0,0,0,0,0,0,-0.3497,-0.3497,0,-0.3488,-0.3488,-0.3487,-0.3463,-0.3463,-0.3462,-0.3462,-0.3453,-0.3453,-0.3453,0,0,0,0,0,0,0,0,0,0,0,0,0,-0.3494,-0.3494,-0.3497,-0.3497,-0.3497,-0.3488,-0.3487,-0.3487,-0.3463,-0.3462,-0.3462,-0.3461,-0.3452,-0.3453,-0.3453,0,0,0,0,0,0,0,0,0,0,0,0,0,-0.3491,-0.3494,-0.3497,-0.3483,-0.3482,-0.3488,-0.3487,-0.3487,-0.3463,-0.3462,-0.3462,-0.3461,-0.3452,-0.3453,-0.3453,-0.3471,0,0,-0.3454,-0.3454,0,0,0,0,0,0,0,0,-0.3491,-0.3491,-0.3486,-0.3484,-0.3483,-0.3476,-0.3483,-0.3482,-0.3463,-0.347,-0.3461,-0.3461,-0.3461,-0.3461,-0.3461,-0.3471,-0.347,-0.3454,-0.3455,-0.3455,-0.3455,0,0,0,0,0,0,0,-0.3491,-0.3491,-0.3493,-0.3486,-0.3484,-0.3478,-0.3477,-0.3483,-0.347,-0.347,-0.3468,-0.3467,-0.346,-0.346,-0.346,-0.347,-0.3454,-0.3455,-0.3455,-0.3455,-0.3494,-0.3495,0,0,0,0,0,0,-0.3494,-0.3492,-0.3494,-0.3493,-0.3485,-0.3479,-0.3477,-0.3479,-0.347,-0.3468,-0.3468,-0.3466,-0.346,-0.346,-0.346,-0.348,-0.3455,-0.3455,-0.3455,-0.3493,-0.3494,-0.3495,0,0,0,0,0,0,-0.3494,-0.3494,-0.3494,-0.3492,-0.3491,-0.348,-0.3482,-0.3479,-0.3479,-0.3469,-0.3466,-0.347,-0.3459,-0.3459,-0.3468,-0.3479,-0.3455,-0.3456,-0.3492,-0.3494,-0.3495,-0.352,0,0,0,0,0,0,-0.3494,-0.3494,-0.3501,-0.3492,-0.3492,-0.3503,-0.3482,-0.3479,-0.348,-0.3477,-0.347,-0.3468,-0.3459,-0.3468,-0.3469,-0.3479,-0.3456,-0.3491,-0.3493,-0.3494,-0.3519,-0.3522,-0.3526,0,0,0,0,0,-0.3494,-0.3509,-0.3501,-0.3502,-0.35,-0.3503,-0.3503,-0.3491,-0.3481,-0.3487,-0.3481,-0.3469,-0.3478,-0.3469,-0.347,-0.3481,-0.349,-0.3492,-0.3494,-0.3517,-0.3522,-0.3526,0,0,0,0,0,0,-0.3519,-0.3507,-0.3499,-0.3512,-0.3509,-0.3499,-0.3507,-0.3497,-0.3497,-0.3495,-0.348,-0.3479,-0.349,-0.3486,-0.3476,-0.3497,-0.3482,-0.3484,-0.3499,-0.3504,-0.3507,-0.3508,-0.3456,0,0,0,0,0,-0.3526,-0.353,-0.3519,-0.3532,-0.3531,-0.3519,-0.352,-0.3512,-0.3508,-0.3507,-0.35,-0.3498,-0.35,-0.3502,-0.3503,-0.3518,-0.3516,-0.3526,-0.3529,-0.3532,-0.3534,-0.3541,-0.3546,-0.3501,-0.3501,-0.3501,0,0,-0.3541,-0.3535,-0.3538,-0.3537,-0.3533,-0.3537,-0.3518,-0.3524,-0.3527,-0.3508,-0.3516,-0.3511,-0.3507,-0.3519,-0.3524,-0.3516,-0.3546,-0.3535,-0.3537,-0.3537,-0.3544,-0.3548,-0.3552,-0.3502,-0.3502,-0.3502,0,0,-0.357,-0.3566,-0.3575,-0.3572,-0.3567,-0.3559,-0.3562,-0.3554,-0.355,-0.3558,-0.3543,-0.3547,-0.3551,-0.3548,-0.3548,-0.3575,-0.3564,-0.3576,-0.3595,-0.3602,-0.3605,-0.3608,-0.3618,-0.3622,-0.3578,-0.3578,-0.3578,0,-0.3589,-0.3594,-0.3581,-0.3588,-0.3587,-0.357,-0.3579,-0.3577,-0.3573,-0.3573,-0.3564,-0.3569,-0.3565,-0.3576,-0.3583,-0.3583,-0.3585,-0.3577,-0.3606,-0.3609,-0.3611,-0.362,-0.3624,-0.358,-0.3579,-0.3579,-0.3579,0,-0.3618,-0.3622,-0.363,-0.3626,-0.3627,-0.3635,-0.3623,-0.3625,-0.3616,-0.361,-0.3618,-0.3612,-0.3612,-0.3614,-0.3606,-0.3624,-0.3619,-0.3608,-0.3593,-0.3617,-0.3625,-0.3629,-0.3582,-0.3581,-0.3581,-0.358,0,0,-0.3662,-0.3651,-0.3654,-0.3652,-0.3645,-0.3648,-0.3655,-0.3655,-0.3657,-0.3655,-0.366,-0.3664,-0.3654,-0.3653,-0.3644,-0.365,-0.3672,-0.3639,-0.3639,-0.3645,-0.3692,-0.3699,-0.3704,-0.3665,-0.3666,-0.3666,-0.3692,0,-0.3689,-0.37,-0.3689,-0.3702,-0.3706,-0.3689,-0.3695,-0.3692,-0.3686,-0.3688,-0.3681,-0.3684,-0.367,-0.367,-0.3675,-0.3668,-0.3681,-0.3666,-0.367,-0.367,-0.3671,-0.3708,-0.3716,-0.3741,-0.3695,-0.3695,-0.3696,0,-0.3722,-0.3721,-0.3735,-0.3727,-0.3728,-0.3733,-0.3732,-0.3734,-0.373,-0.3725,-0.3724,-0.3713,-0.3719,-0.3704,-0.3713,-0.3703,-0.3704,-0.37,-0.3701,-0.3701,-0.3684,-0.3708,-0.3748,-0.3752,-0.3701,-0.37,-0.37,0,-0.3753,-0.3755,-0.3763,-0.3762,-0.3753,-0.3757,-0.3754,-0.3748,-0.3749,-0.3747,-0.3748,-0.3747,-0.3747,-0.3747,-0.3737,-0.3727,-0.3746,-0.3731,-0.3742,-0.3743,-0.3747,-0.3747,-0.3787,-0.3748,-0.3748,-0.3748,-0.3748,0,-0.3784,-0.3793,-0.3777,-0.3782,-0.3792,-0.3778,-0.3788,-0.3783,-0.3778,-0.3782,-0.3768,-0.3772,-0.3758,-0.376,-0.3752,-0.376,-0.376,-0.3756,-0.3754,-0.3757,-0.3758,-0.3757,-0.3755,-0.3749,-0.3749,-0.3748,-0.3748,0,-0.382,-0.381,-0.3818,-0.3808,-0.3806,-0.3813,-0.3805,-0.3809,-0.3802,-0.3807,-0.3808,-0.3797,-0.3799,-0.3788,-0.3789,-0.3783,-0.3795,-0.379,-0.3796,-0.3795,-0.3807,-0.3806,-0.3849,-0.3853,-0.3811,-0.3812,-0.3812,0,-0.384,-0.3847,-0.3838,-0.3839,-0.3836,-0.3839,-0.3839,-0.3826,-0.3827,-0.3822,-0.3827,-0.3828,-0.3828,-0.3832,-0.3824,-0.3824,-0.3819,-0.3834,-0.3819,-0.3822,-0.3819,-0.3819,-0.3819,-0.3837,-0.3838,-0.3838,-0.3838,0,-0.3878,-0.3872,-0.3873,-0.3872,-0.3872,-0.3871,-0.3868,-0.387,-0.3856,-0.3858,-0.386,-0.386,-0.386,-0.3861,-0.3859,-0.3856,-0.3845,-0.3843,-0.3846,-0.3849,-0.3853,-0.3851,-0.3805,-0.3842,-0.3842,-0.3842,-0.3841,-0.3841,-0.3906,-0.3911,-0.3905,-0.3906,-0.3903,-0.3901,-0.3905,-0.3898,-0.3899,-0.3898,-0.389,-0.3893,-0.3889,-0.3885,-0.3883,-0.3885,-0.3878,-0.3882,-0.3883,-0.3884,-0.3886,-0.3853,-0.3885,-0.3885,-0.3885,-0.3885,-0.3885,0,-0.3942,-0.3938,-0.3939,-0.3936,-0.3937,-0.3926,-0.3923,-0.3924,-0.3927,-0.3923,-0.3924,-0.3926,-0.3926,-0.3918,-0.3918,-0.3922,-0.3917,-0.3922,-0.3922,-0.3921,-0.3893,-0.389,-0.3926,-0.3926,-0.3926,-0.3926,-0.3926,-0.3926,-0.3961,-0.3968,-0.3962,-0.3968,-0.3963,-0.3966,-0.3965,-0.3963,-0.396,-0.3963,-0.3963,-0.3958,-0.3952,-0.3952,-0.3952,-0.395,-0.395,-0.3957,-0.3953,-0.3927,-0.3923,-0.3919,-0.3917,-0.3958,-0.3958,-0.3981,-0.3981,-0.3981]},{"header":{"parameterUnit":"m.s-1","parameterCategory":1,"la1":30.2991,"la2":30.254,"lo1":-89.0895,"lo2":-89.0444,"dy":0.0017,"dx":0.0017,"nx":28,"ny":28,"refTime":"2025-11-14T09:00:00:Z","depth":0,"parameterNumber":3,"parameterNumberName":"V-component_of_WINDS"},"data":[0,0,0,0,0,0,0,0,0,0,0,0,0,0,0,0,0,0,0,0,0,0,0,0,0,0,0,0,0,0,0,0,0,0,0,0,0,0,0,0,0,0,0,0,0,0,0,0,0,0,0,0,0,0,0,0,0,0,-0.8816,-0.8816,0,-0.8844,-0.8844,-0.8844,-0.8869,-0.8869,-0.8869,-0.887,-0.8897,-0.8898,-0.8898,0,0,0,0,0,0,0,0,0,0,0,0,0,-0.8786,-0.8786,-0.8816,-0.8816,-0.8816,-0.8844,-0.8844,-0.8844,-0.8869,-0.8869,-0.887,-0.887,-0.8897,-0.8898,-0.8898,0,0,0,0,0,0,0,0,0,0,0,0,0,-0.8805,-0.8786,-0.8816,-0.8832,-0.8834,-0.8844,-0.8844,-0.8845,-0.8869,-0.8869,-0.887,-0.887,-0.8897,-0.8898,-0.8899,-0.8894,0,0,-0.8901,-0.8901,0,0,0,0,0,0,0,0,-0.8803,-0.8806,-0.8829,-0.8831,-0.8833,-0.8853,-0.8844,-0.8861,-0.8869,-0.8855,-0.887,-0.887,-0.8882,-0.8884,-0.8889,-0.8896,-0.8897,-0.8901,-0.8901,-0.8901,-0.8902,0,0,0,0,0,0,0,-0.8802,-0.8805,-0.8827,-0.883,-0.8832,-0.8839,-0.8842,-0.8847,-0.8866,-0.8857,-0.8858,-0.8861,-0.8883,-0.8888,-0.8889,-0.8897,-0.8901,-0.8901,-0.8902,-0.8902,-0.8906,-0.8906,0,0,0,0,0,0,-0.8798,-0.8803,-0.8826,-0.8828,-0.8819,-0.8839,-0.8842,-0.8846,-0.8866,-0.887,-0.8861,-0.8862,-0.8886,-0.8889,-0.889,-0.8889,-0.8901,-0.8902,-0.8903,-0.8907,-0.8906,-0.8906,0,0,0,0,0,0,-0.8797,-0.88,-0.8825,-0.8816,-0.882,-0.8839,-0.8843,-0.8847,-0.8851,-0.887,-0.8873,-0.8862,-0.8887,-0.8889,-0.8894,-0.8891,-0.8902,-0.8903,-0.8907,-0.8906,-0.8906,-0.8885,0,0,0,0,0,0,-0.8797,-0.88,-0.8797,-0.8816,-0.882,-0.8827,-0.8843,-0.8847,-0.8852,-0.8854,-0.8871,-0.8874,-0.8887,-0.8893,-0.8895,-0.8892,-0.8904,-0.8907,-0.8907,-0.8906,-0.8887,-0.8884,-0.8882,0,0,0,0,0,-0.8795,-0.879,-0.8797,-0.88,-0.8818,-0.8827,-0.8829,-0.8845,-0.8852,-0.8851,-0.8863,-0.8874,-0.8891,-0.8893,-0.8896,-0.8893,-0.8908,-0.8907,-0.8906,-0.8887,-0.8885,-0.8883,0,0,0,0,0,0,-0.8769,-0.8792,-0.8801,-0.8801,-0.8812,-0.8831,-0.883,-0.8841,-0.885,-0.8851,-0.887,-0.8873,-0.8877,-0.8885,-0.8887,-0.8892,-0.8901,-0.8901,-0.8886,-0.8883,-0.8881,-0.888,-0.8904,0,0,0,0,0,-0.8763,-0.8769,-0.8789,-0.8787,-0.8792,-0.881,-0.8814,-0.8825,-0.8838,-0.8842,-0.8855,-0.8866,-0.8875,-0.8879,-0.8888,-0.8888,-0.8893,-0.8888,-0.8886,-0.8884,-0.8883,-0.8887,-0.8886,-0.8904,-0.8904,-0.8904,0,0,-0.8751,-0.8765,-0.8766,-0.8782,-0.8792,-0.8798,-0.8813,-0.8818,-0.8824,-0.8843,-0.8849,-0.8859,-0.8873,-0.8876,-0.8878,-0.8883,-0.888,-0.8883,-0.8881,-0.8882,-0.8886,-0.8885,-0.8883,-0.8903,-0.8903,-0.8903,0,0,-0.8733,-0.8743,-0.8744,-0.8754,-0.877,-0.8782,-0.8783,-0.8801,-0.8809,-0.8815,-0.8831,-0.8837,-0.885,-0.8861,-0.8868,-0.8857,-0.8869,-0.886,-0.8849,-0.8853,-0.8851,-0.885,-0.8848,-0.8847,-0.8859,-0.8859,-0.8859,0,-0.8716,-0.8725,-0.8743,-0.8748,-0.8755,-0.8774,-0.8777,-0.8786,-0.8803,-0.8808,-0.8814,-0.8833,-0.8843,-0.8851,-0.8849,-0.8853,-0.8856,-0.8858,-0.885,-0.8849,-0.8848,-0.8847,-0.8846,-0.8858,-0.8858,-0.8858,-0.8858,0,-0.8705,-0.8712,-0.8711,-0.8729,-0.8736,-0.8739,-0.8758,-0.8764,-0.8775,-0.8787,-0.8795,-0.8809,-0.8822,-0.8825,-0.8835,-0.8835,-0.8838,-0.8846,-0.8856,-0.8845,-0.8844,-0.8844,-0.8856,-0.8857,-0.8857,-0.8857,0,0,-0.8669,-0.8699,-0.8698,-0.8708,-0.8728,-0.8734,-0.874,-0.8753,-0.8759,-0.877,-0.8777,-0.8789,-0.8798,-0.8806,-0.8818,-0.8821,-0.8815,-0.883,-0.8831,-0.8828,-0.8819,-0.8813,-0.8811,-0.8823,-0.8823,-0.8823,-0.8818,0,-0.8655,-0.8667,-0.8684,-0.869,-0.8698,-0.8718,-0.8723,-0.8736,-0.8749,-0.8758,-0.8772,-0.8781,-0.8791,-0.8797,-0.88,-0.8815,-0.8814,-0.8815,-0.883,-0.883,-0.8826,-0.8811,-0.8804,-0.8798,-0.8817,-0.8817,-0.8817,0,-0.864,-0.8653,-0.866,-0.8683,-0.8687,-0.8691,-0.8707,-0.8714,-0.8731,-0.874,-0.8751,-0.8765,-0.8773,-0.8782,-0.8795,-0.8796,-0.8803,-0.8811,-0.8812,-0.8814,-0.8823,-0.8814,-0.8797,-0.8796,-0.8816,-0.8817,-0.8817,0,-0.8616,-0.8635,-0.8642,-0.865,-0.8675,-0.8679,-0.869,-0.8707,-0.8715,-0.8729,-0.8735,-0.8749,-0.8757,-0.8768,-0.8786,-0.879,-0.8798,-0.8807,-0.8806,-0.8806,-0.8807,-0.8807,-0.8792,-0.881,-0.881,-0.881,-0.881,0,-0.86,-0.8603,-0.8632,-0.8637,-0.8643,-0.8663,-0.8669,-0.8682,-0.8697,-0.8706,-0.8723,-0.8731,-0.8754,-0.8764,-0.8778,-0.8788,-0.8791,-0.88,-0.8803,-0.8799,-0.8798,-0.8804,-0.8805,-0.881,-0.881,-0.881,-0.881,0,-0.8573,-0.8592,-0.8602,-0.8627,-0.8634,-0.8637,-0.8659,-0.8665,-0.8679,-0.869,-0.8693,-0.8716,-0.873,-0.8749,-0.8768,-0.8777,-0.8786,-0.8791,-0.878,-0.8783,-0.8781,-0.8782,-0.877,-0.8771,-0.8788,-0.8787,-0.8787,0,-0.8562,-0.8566,-0.8592,-0.8599,-0.861,-0.8621,-0.863,-0.8651,-0.866,-0.8681,-0.8685,-0.8701,-0.8714,-0.8735,-0.8754,-0.8769,-0.8776,-0.8771,-0.8778,-0.8774,-0.8778,-0.8777,-0.8779,-0.8769,-0.8769,-0.8769,-0.8768,0,-0.8541,-0.8551,-0.8563,-0.858,-0.8591,-0.8605,-0.862,-0.8625,-0.8649,-0.8658,-0.8673,-0.8684,-0.8705,-0.872,-0.8739,-0.8751,-0.8764,-0.8766,-0.8767,-0.8762,-0.8757,-0.8761,-0.8777,-0.8766,-0.8766,-0.8767,-0.8767,-0.8767,-0.8523,-0.8528,-0.8548,-0.8563,-0.8576,-0.8591,-0.8598,-0.8615,-0.8628,-0.8647,-0.8658,-0.8673,-0.8693,-0.8719,-0.8731,-0.8743,-0.8748,-0.8749,-0.8749,-0.8749,-0.8749,-0.8754,-0.8746,-0.8746,-0.8747,-0.8747,-0.8747,0,-0.8504,-0.8519,-0.8531,-0.8553,-0.8564,-0.8577,-0.8595,-0.8604,-0.8617,-0.8634,-0.8647,-0.8666,-0.8682,-0.8702,-0.872,-0.8726,-0.8733,-0.873,-0.873,-0.8733,-0.8742,-0.874,-0.8724,-0.8724,-0.8724,-0.8724,-0.8724,-0.8724,-0.8496,-0.8507,-0.852,-0.8538,-0.8553,-0.8568,-0.8577,-0.8591,-0.8605,-0.8625,-0.8639,-0.8652,-0.8671,-0.8691,-0.8707,-0.8713,-0.8719,-0.8714,-0.8722,-0.873,-0.8732,-0.8734,-0.8732,-0.8715,-0.8715,-0.8712,-0.8712,-0.8712]}]]